Weather History for KBTM - April, 2014

Change the Weather History Date:

Thursday, April 24, 2014

  Actual Average Record
Temperature  
Mean Temperature 40 °F 41 °F  
Max Temperature 48 °F 54 °F 77 °F (1910)
Min Temperature 31 °F 28 °F 13 °F (1958)
Degree Days  
Heating Degree Days 25 24  
Month to date heating degree days 617 643  
Since 1 July heating degree days 8063 8254  
Cooling Degree Days 0 0  
Month to date cooling degree days 0 0  
Year to date cooling degree days 0 0  
Moisture  
Dew Point 29 °F    
Average Humidity 69    
Maximum Humidity 92    
Minimum Humidity 46    
Precipitation  
Precipitation 0.08 in 0.04 in 0.50 in (1900)
Month to date precipitation 0.80 0.90  
Year to date precipitation 2.91 2.56  
Sea Level Pressure  
Sea Level Pressure 29.85 in    
Wind  
Wind Speed 6 mph (WSW)    
Max Wind Speed 21 mph    
Max Gust Speed 28 mph    
Visibility 10 miles    
Events Rain    
T = Trace of Precipitation, MM = Missing Value Source: NWS Daily Summary

Daily Weather History Graph

Daily Weather History Graph

Search for Another Location

Airport or City:

Trip Planner

Search our weather history database for the weather conditions in past years. The results will help you decide how hot, cold, wet, or windy it might be!

Date:

Astronomy

Apr. 24, 2014 Rise Set
Actual Time 6:28 AM MDT 8:28 PM MDT
Civil Twilight 5:55 AM MDT 9:01 PM MDT
Nautical Twilight 5:16 AM MDT 9:41 PM MDT
Astronomical Twilight 4:32 AM MDT 10:25 PM MDT
Moon 3:57 AM MDT (4/24) 3:33 PM MDT (4/24)
Length of Visible Light 15h 05m
Length of Day
14h 00m
Waning Crescent, 24% of the Moon is Illuminated
Apr 24
Waning Crescent
Apr 29
New
May 6
First Quarter
May 14
Full
May 21
Last Quarter

Hourly Weather History & Observations

Time (MDT) Temp. Windchill Dew Point Humidity Pressure Visibility Wind Dir Wind Speed Gust Speed Precip Events Conditions
12:53 AM 37.0 °F 32.4 °F 21.9 °F 54% 29.88 in 10.0 mi West 5.8 mph - N/A   Overcast
1:53 AM 36.0 °F - 23.0 °F 59% 29.89 in 10.0 mi Calm Calm - N/A   Overcast
2:53 AM 36.0 °F 33.3 °F 21.0 °F 55% 29.88 in 10.0 mi Variable 3.5 mph - N/A   Overcast
3:53 AM 37.0 °F 33.3 °F 21.9 °F 54% 29.87 in 10.0 mi SW 4.6 mph - N/A   Mostly Cloudy
4:53 AM 36.0 °F 32.1 °F 23.0 °F 59% 29.88 in 10.0 mi SSE 4.6 mph - N/A   Overcast
5:53 AM 36.0 °F - 21.9 °F 57% 29.86 in 10.0 mi Calm Calm - N/A   Overcast
6:53 AM 32.0 °F 28.7 °F 25.0 °F 75% 29.88 in 10.0 mi South 3.5 mph - N/A   Mostly Cloudy
7:53 AM 35.1 °F - 25.0 °F 67% 29.88 in 10.0 mi Calm Calm - N/A   Overcast
8:53 AM 39.0 °F - 21.9 °F 50% 29.86 in 10.0 mi Calm Calm - N/A   Overcast
9:53 AM 39.9 °F - 23.0 °F 51% 29.85 in 10.0 mi Calm Calm - N/A   Overcast
10:53 AM 44.1 °F 37.4 °F 26.1 °F 49% 29.83 in 10.0 mi SSW 13.8 mph - N/A   Mostly Cloudy
11:53 AM 43.0 °F 37.7 °F 28.0 °F 56% 29.84 in 10.0 mi SSW 9.2 mph - N/A   Overcast
12:29 PM 42.1 °F 36.6 °F 30.9 °F 65% 29.84 in 10.0 mi SW 9.2 mph - N/A   Overcast
12:39 PM 42.1 °F 37.7 °F 30.9 °F 65% 29.84 in 10.0 mi SSW 6.9 mph - N/A   Overcast
12:53 PM 43.0 °F 38.2 °F 32.0 °F 65% 29.83 in 10.0 mi SSW 8.1 mph - N/A   Overcast
1:30 PM 44.1 °F 42.5 °F 30.9 °F 60% 29.83 in 10.0 mi Variable 3.5 mph - N/A   Overcast
1:53 PM 45.0 °F 41.2 °F 30.9 °F 58% 29.81 in 10.0 mi South 6.9 mph - N/A   Overcast
2:53 PM 48.0 °F - 30.0 °F 50% 29.80 in 10.0 mi WSW 12.7 mph 24.2 mph N/A   Mostly Cloudy
3:53 PM 48.0 °F - 28.9 °F 48% 29.78 in 10.0 mi WSW 11.5 mph - N/A   Overcast
4:41 PM 46.0 °F 40.6 °F 34.0 °F 63% 29.83 in 10.0 mi NNW 11.5 mph - N/A   Overcast
4:53 PM 46.0 °F 42.5 °F 34.0 °F 63% 29.82 in 10.0 mi NNE 6.9 mph - N/A   Overcast
5:53 PM 46.9 °F - 30.9 °F 54% 29.80 in 10.0 mi North 3.5 mph - N/A   Mostly Cloudy
6:53 PM 48.0 °F - 28.9 °F 48% 29.83 in 10.0 mi NW 8.1 mph - N/A   Scattered Clouds
7:53 PM 46.0 °F 41.4 °F 28.9 °F 51% 29.83 in 10.0 mi WNW 9.2 mph - N/A   Mostly Cloudy
8:53 PM 42.1 °F 34.9 °F 32.0 °F 67% 29.84 in 10.0 mi WNW 13.8 mph 20.7 mph 0.00 in Rain Light Rain
9:29 PM 37.0 °F 29.8 °F 33.1 °F 86% 29.89 in 4.0 mi WNW 10.4 mph - 0.04 in Rain Rain
9:53 PM 35.1 °F 28.6 °F 33.1 °F 92% 29.89 in 9.0 mi ENE 8.1 mph - 0.08 in Rain Light Rain
10:19 PM 34.0 °F 29.8 °F 33.1 °F 96% 29.87 in 10.0 mi NW 4.6 mph - 0.00 in   Mostly Cloudy
10:53 PM 35.1 °F - 33.1 °F 92% 29.88 in 10.0 mi Calm Calm - 0.00 in Rain Light Rain
11:03 PM 36.0 °F 33.3 °F 34.0 °F 93% 29.88 in 10.0 mi East 3.5 mph - 0.00 in   Overcast
11:53 PM 36.0 °F 33.3 °F 34.0 °F 93% 29.86 in 10.0 mi WNW 3.5 mph - 0.00 in Rain Light Rain